GW7182 Weather Reports


Display with metric or nautical units.
time (UTC)temp
F
wind
direction
speed
MPH
gust
MPH
rain 1hr
in
rain 24hr
in
rain mn
in
humidity
%
barometer
mb
20260504081533 51 347 1.0 2.0 0.00 0.00 0.00 64 1018.4
20260504080530 50 42 1.0 3.0 0.00 0.00 0.00 64 1018.4
20260504050519 51 134 1.0 3.0 0.00 0.00 0.00 68 1019.5
20260504045516 52 207 1.0 3.0 0.00 0.00 0.00 65 1019.5
20260504044553 52 357 2.0 4.0 0.00 0.00 0.00 66 1019.4
20260504043550 53 350 2.0 4.0 0.00 0.00 0.00 65 1019.2
20260504042527 53 41 1.0 3.0 0.00 0.00 0.00 60 1018.9
20260504041524 53 23 0.0 4.0 0.00 0.00 0.00 60 1019.2
20260504040521 53 11 3.0 6.0 0.00 0.00 0.00 60 1019.2
20260504035518 53 166 2.0 4.0 0.00 0.00 0.00 60 1019.2
20260504034515 53 7 2.0 5.0 0.00 0.00 0.00 61 1018.9
20260504033533 53 168 2.0 5.0 0.00 0.00 0.00 59 1019.3
20260504032610 53 168 3.0 6.0 0.00 0.00 0.00 58 1018.9
20260504031527 53 177 2.0 6.0 0.00 0.00 0.00 58 1019.1
20260504030524 53 5 3.0 6.0 0.00 0.00 0.00 59 1019.1
20260504025521 53 358 2.0 4.0 0.00 0.00 0.00 60 1019.2
20260504024538 54 38 0.0 2.0 0.00 0.00 0.00 56 1019.0
20260504023536 53 0.0 0.0 0.00 0.00 0.00 55 1019.0
20260504022533 53 0.0 1.0 0.00 0.00 0.00 56 1018.9
20260504021530 53 0.0 0.0 0.00 0.00 0.00 56 1018.8
20260504020527 54 0.0 0.0 0.00 0.00 0.00 56 1018.7
20260504015524 54 0.0 1.0 0.00 0.00 0.00 59 1018.5
20260504014521 54 0.0 0.0 0.00 0.00 0.00 60 1018.7
20260504013519 54 0.0 1.0 0.00 0.00 0.00 61 1018.5
20260504012516 55 0.0 0.0 0.00 0.00 0.00 60 1018.5
20260504011553 55 0.0 0.0 0.00 0.00 0.00 58 1018.2
20260504010550 55 0.0 0.0 0.00 0.00 0.00 56 1018.4
20260504005527 56 0.0 0.0 0.00 0.00 0.00 54 1018.2
20260504004604 57 0.0 0.0 0.00 0.00 0.00 56 1018.1
20260504003521 57 0.0 0.0 0.00 0.00 0.00 54 1018.0
20260504002519 58 0.0 0.0 0.00 0.00 0.00 55 1018.1
20260504001515 58 0.0 0.0 0.00 0.00 0.00 54 1018.1
20260504000532 59 0.0 0.0 0.00 0.00 0.00 52 1018.1
20260503235530 60 326 0.0 2.0 0.00 0.00 0.00 53 1018.1
20260503234527 61 0.0 1.0 0.00 0.00 0.00 49 1018.0
20260503233604 62 268 1.0 2.0 0.00 0.00 0.00 47 1018.1
20260503232521 62 237 1.0 3.0 0.00 0.00 0.00 45 1018.0
20260503231518 63 347 0.0 1.0 0.00 0.00 0.00 46 1018.0
20260503230515 63 268 0.0 2.0 0.00 0.00 0.00 43 1017.9
20260503225533 64 238 1.0 6.0 0.00 0.00 0.00 41 1018.1
20260503224550 64 275 2.0 7.0 0.00 0.00 0.00 40 1018.1
20260503223527 64 278 2.0 5.0 0.00 0.00 0.00 39 1018.4
20260503222524 64 258 2.0 5.0 0.00 0.00 0.00 38 1018.3
20260503221541 64 316 1.0 3.0 0.00 0.00 0.00 39 1018.3
20260503220518 64 264 3.0 7.0 0.00 0.00 0.00 38 1018.5
20260503215556 63 327 1.0 4.0 0.00 0.00 0.00 39 1018.5
20260503214533 63 349 1.0 4.0 0.00 0.00 0.00 35 1018.4
20260503213530 65 265 2.0 4.0 0.00 0.00 0.00 36 1018.4
20260503212526 63 246 2.0 5.0 0.00 0.00 0.00 38 1018.5
20260503211524 62 309 2.0 4.0 0.00 0.00 0.00 36 1018.5
20260503210521 63 305 2.0 4.0 0.00 0.00 0.00 35 1018.7
20260503205538 64 284 1.0 4.0 0.00 0.00 0.00 35 1018.7
20260503204535 64 210 3.0 4.0 0.00 0.00 0.00 37 1018.9
20260503203532 64 287 3.0 6.0 0.00 0.00 0.00 39 1018.9
20260503202529 63 277 2.0 8.0 0.00 0.00 0.00 39 1019.2
20260503201526 63 286 2.0 4.0 0.00 0.00 0.00 37 1019.3
20260503200523 63 337 2.0 3.0 0.00 0.00 0.00 36 1019.4
20260503195521 62 259 2.0 5.0 0.00 0.00 0.00 37 1019.5
20260503194518 62 277 2.0 5.0 0.00 0.00 0.00 36 1019.9
20260503193555 62 314 2.0 4.0 0.00 0.00 0.00 35 1020.0
20260503192533 63 290 2.0 7.0 0.00 0.00 0.00 36 1020.0
20260503191530 61 273 2.0 5.0 0.00 0.00 0.00 38 1020.3
20260503190527 61 308 3.0 5.0 0.00 0.00 0.00 38 1020.3
20260503185524 61 322 2.0 4.0 0.00 0.00 0.00 39 1020.3
20260503184521 61 278 3.0 9.0 0.00 0.00 0.00 40 1020.5
20260503183518 61 246 3.0 9.0 0.00 0.00 0.00 41 1020.4
20260503182536 60 250 2.0 5.0 0.00 0.00 0.00 41 1020.5
20260503181532 61 299 2.0 4.0 0.00 0.00 0.00 44 1020.6
20260503180529 61 270 2.0 6.0 0.00 0.00 0.00 43 1020.6
20260503175526 61 252 2.0 3.0 0.00 0.00 0.00 43 1020.6
20260503174524 61 219 2.0 5.0 0.00 0.00 0.00 44 1020.7
20260503173521 59 215 2.0 5.0 0.00 0.00 0.00 46 1020.7
20260503172518 60 330 2.0 4.0 0.00 0.00 0.00 44 1021.1
20260503171535 58 338 1.0 3.0 0.00 0.00 0.00 46 1021.0
20260503170532 58 263 1.0 6.0 0.00 0.00 0.00 45 1021.3
20260503150518 55 254 2.0 5.0 0.00 0.00 0.00 50 1021.7
20260503130523 47 221 1.0 2.0 0.00 0.00 0.00 76 1021.1
20260503110534 40 283 0.0 2.0 0.00 0.00 0.00 89 1020.4